Weather History for Ogallala, NE

Change the Weather History Date:

Tuesday, April 23, 2013

  Actual Average Record
Temperature  
Mean Temperature 32 °F -  
Max Temperature 43 °F 67 °F 93 °F (1989)
Min Temperature 20 °F 36 °F 19 °F (1963)
Degree Days  
Heating Degree Days 33    
Moisture  
Dew Point 16 °F    
Average Humidity 55    
Maximum Humidity 80    
Minimum Humidity 29    
Precipitation  
Precipitation 0.00 in - - ()
Sea Level Pressure  
Sea Level Pressure 30.22 in    
Wind  
Wind Speed 11 mph (NNW)    
Max Wind Speed 16 mph    
Max Gust Speed 26 mph    
Visibility 10 miles    
Events      
Averages and records for this station are not official NWS values.
T = Trace of Precipitation, MM = Missing Value Source: NWS Daily Summary

Daily Weather History Graph

Daily Weather History Graph

Search for Another Location

Airport:

Trip Planner

Search our weather history database for the weather conditions in past years. The results will help you decide how hot, cold, wet, or windy it might be!

Date:

Astronomy

Apr. 23, 2013 Rise Set
Actual Time 5:55 AM MDT 7:35 PM MDT
Civil Twilight 5:26 AM MDT 8:05 PM MDT
Nautical Twilight 4:50 AM MDT 8:40 PM MDT
Astronomical Twilight 4:13 AM MDT 9:18 PM MDT
Moon 5:32 PM MDT (4/23) 4:25 AM MDT (4/23)
Length of Visible Light 14h 38m
Length of Day
13h 40m
Waxing Gibbous, 94% of the Moon is Illuminated
Apr 23
Waxing Gibbous
Apr 25
Full
May 2
Last Quarter
May 9
New
May 17
First Quarter

Hourly Weather History & Observations

Time (MDT) Temp. Windchill Dew Point Humidity Pressure Visibility Wind Dir Wind Speed Gust Speed Precip Events Conditions
12:15 AM 27.0 °F 16.1 °F 18.5 °F 70% 30.32 in 10.0 mi North 12.7 mph - N/A   Overcast
12:35 AM 27.1 °F 16.4 °F 18.7 °F 70% 30.33 in 10.0 mi North 12.7 mph - N/A   Overcast
1:15 AM 27.3 °F 16.6 °F 19.0 °F 71% 30.29 in 10.0 mi North 12.7 mph - N/A   Overcast
1:35 AM 27.5 °F 16.3 °F 19.0 °F 71% 30.31 in 10.0 mi North 13.8 mph - N/A   Mostly Cloudy
1:55 AM 27.3 °F 16.1 °F 18.5 °F 69% 30.30 in 10.0 mi North 13.8 mph - N/A   Scattered Clouds
2:07 AM 26.6 °F 15.2 °F 19.4 °F 74% 30.30 in 10.0 mi North 13.8 mph - N/A   Scattered Clouds
2:15 AM 27.3 °F 17.1 °F 19.0 °F 71% 30.29 in 10.0 mi North 11.5 mph - N/A   Scattered Clouds
2:35 AM 27.5 °F 16.8 °F 19.4 °F 72% 30.29 in 10.0 mi North 12.7 mph - N/A   Mostly Cloudy
2:55 AM 27.5 °F 16.3 °F 19.6 °F 72% 30.29 in 10.0 mi North 13.8 mph - N/A   Overcast
3:15 AM 27.9 °F 16.3 °F 19.8 °F 72% 30.27 in 10.0 mi North 15.0 mph - N/A   Overcast
3:35 AM 27.9 °F 16.3 °F 18.9 °F 69% 30.27 in 10.0 mi North 15.0 mph - N/A   Overcast
4:15 AM 28.0 °F 17.5 °F 19.4 °F 70% 30.27 in 10.0 mi North 12.7 mph 17.3 mph N/A   Overcast
4:35 AM 28.0 °F 17.0 °F 18.3 °F 67% 30.26 in 10.0 mi North 13.8 mph - N/A   Overcast
4:55 AM 28.0 °F 18.6 °F 19.4 °F 70% 30.27 in 10.0 mi North 10.4 mph - N/A   Overcast
5:15 AM 27.3 °F 16.6 °F 19.9 °F 74% 30.27 in 10.0 mi North 12.7 mph - N/A   Mostly Cloudy
5:35 AM 27.1 °F 18.2 °F 20.3 °F 75% 30.27 in 10.0 mi North 9.2 mph - N/A   Scattered Clouds
5:55 AM 27.1 °F 20.7 °F 20.5 °F 76% 30.27 in 10.0 mi North 5.8 mph - N/A   Mostly Cloudy
6:15 AM 27.5 °F 19.3 °F 20.3 °F 74% 30.28 in 10.0 mi North 8.1 mph - N/A   Overcast
6:35 AM 27.5 °F 18.6 °F 21.0 °F 77% 30.28 in 10.0 mi NNW 9.2 mph - N/A   Mostly Cloudy
6:55 AM 28.0 °F 18.1 °F 20.3 °F 73% 30.27 in 10.0 mi North 11.5 mph - N/A   Mostly Cloudy
7:15 AM 28.6 °F 19.3 °F 20.8 °F 73% 30.28 in 10.0 mi North 10.4 mph - N/A   Scattered Clouds
7:35 AM 28.9 °F 18.6 °F 20.5 °F 71% 30.27 in 10.0 mi NNW 12.7 mph - N/A   Clear
7:55 AM 29.3 °F 19.1 °F 19.6 °F 67% 30.27 in 10.0 mi North 12.7 mph - N/A   Clear
8:15 AM 29.3 °F 18.6 °F 20.1 °F 69% 30.27 in 10.0 mi North 13.8 mph - N/A   Clear
8:35 AM 29.8 °F 19.3 °F 20.1 °F 67% 30.28 in 10.0 mi NNW 13.8 mph - N/A   Scattered Clouds
8:55 AM 29.8 °F 20.3 °F 19.9 °F 67% 30.28 in 10.0 mi NNW 11.5 mph 18.4 mph N/A   Mostly Cloudy
9:15 AM 30.7 °F 20.4 °F 19.0 °F 62% 30.28 in 10.0 mi NNW 13.8 mph - N/A   Mostly Cloudy
9:35 AM 31.6 °F 23.1 °F 18.3 °F 58% 30.27 in 10.0 mi NNW 10.4 mph 18.4 mph N/A   Scattered Clouds
10:15 AM 32.5 °F 22.3 °F 16.0 °F 51% 30.27 in 10.0 mi North 15.0 mph 26.5 mph N/A   Overcast
10:35 AM 33.1 °F 23.9 °F 15.6 °F 49% 30.27 in 10.0 mi North 12.7 mph 18.4 mph N/A   Overcast
10:55 AM 33.8 °F 25.8 °F 14.5 °F 45% 30.25 in 10.0 mi North 10.4 mph 18.4 mph N/A   Mostly Cloudy
11:15 AM 34.7 °F 26.9 °F 15.1 °F 45% 30.24 in 10.0 mi North 10.4 mph 19.6 mph N/A   Overcast
11:35 AM 35.8 °F 26.1 °F 14.7 °F 42% 30.24 in 10.0 mi NW 16.1 mph 19.6 mph N/A   Mostly Cloudy
11:55 AM 36.7 °F 27.6 °F 14.0 °F 39% 30.23 in 10.0 mi NNW 15.0 mph 19.6 mph N/A   Mostly Cloudy
12:15 PM 37.6 °F 28.4 °F 13.3 °F 37% 30.22 in 10.0 mi NNW 16.1 mph 21.9 mph N/A   Mostly Cloudy
12:35 PM 36.9 °F 28.7 °F 12.7 °F 37% 30.22 in 10.0 mi North 12.7 mph 17.3 mph N/A   Mostly Cloudy
12:55 PM 37.9 °F 28.9 °F 12.6 °F 35% 30.21 in 10.0 mi NW 16.1 mph - N/A   Mostly Cloudy
1:15 PM 37.6 °F 30.5 °F 13.6 °F 38% 30.20 in 10.0 mi NNW 10.4 mph 17.3 mph N/A   Mostly Cloudy
1:35 PM 37.4 °F 29.8 °F 13.8 °F 38% 30.19 in 10.0 mi North 11.5 mph 21.9 mph N/A   Mostly Cloudy
1:55 PM 39.7 °F 32.3 °F 13.3 °F 34% 30.18 in 10.0 mi NNW 12.7 mph 18.4 mph N/A   Scattered Clouds
2:15 PM 38.5 °F 32.7 °F 12.2 °F 34% 30.18 in 10.0 mi North 8.1 mph 17.3 mph N/A   Mostly Cloudy
2:35 PM 40.6 °F 36.0 °F 13.5 °F 33% 30.17 in 10.0 mi NNW 6.9 mph - N/A   Mostly Cloudy
2:55 PM 41.7 °F 33.7 °F 13.1 °F 31% 30.16 in 10.0 mi NNW 16.1 mph 20.7 mph N/A   Mostly Cloudy
3:15 PM 41.7 °F 36.1 °F 12.0 °F 30% 30.15 in 10.0 mi NNW 9.2 mph 19.6 mph N/A   Scattered Clouds
3:35 PM 41.2 °F 34.5 °F 12.0 °F 30% 30.15 in 10.0 mi NW 11.5 mph 18.4 mph N/A   Scattered Clouds
3:55 PM 41.7 °F 36.7 °F 12.7 °F 31% 30.14 in 10.0 mi NW 8.1 mph 17.3 mph N/A   Mostly Cloudy
4:15 PM 42.6 °F 37.2 °F 12.9 °F 30% 30.13 in 10.0 mi West 9.2 mph 20.7 mph N/A   Mostly Cloudy
4:35 PM 41.9 °F 36.3 °F 12.2 °F 30% 30.13 in 10.0 mi NNW 9.2 mph - N/A   Scattered Clouds
4:55 PM 42.8 °F 37.5 °F 13.3 °F 30% 30.13 in 10.0 mi NNW 9.2 mph 16.1 mph N/A   Scattered Clouds
5:15 PM 43.2 °F 38.4 °F 12.9 °F 29% 30.12 in 10.0 mi NW 8.1 mph - N/A   Scattered Clouds
5:35 PM 42.3 °F 37.3 °F 12.9 °F 30% 30.12 in 10.0 mi North 8.1 mph - N/A   Scattered Clouds
5:55 PM 42.4 °F 35.7 °F 13.3 °F 31% 30.13 in 10.0 mi North 12.7 mph 19.6 mph N/A   Scattered Clouds
6:15 PM 41.4 °F 35.2 °F 13.6 °F 32% 30.13 in 10.0 mi North 10.4 mph 16.1 mph N/A   Clear
6:35 PM 41.2 °F 36.0 °F 14.4 °F 34% 30.13 in 10.0 mi North 8.1 mph - N/A   Mostly Cloudy
6:55 PM 40.5 °F 34.1 °F 14.5 °F 35% 30.14 in 10.0 mi North 10.4 mph - N/A   Scattered Clouds
7:15 PM 38.8 °F 32.6 °F 15.1 °F 38% 30.15 in 10.0 mi North 9.2 mph - N/A   Scattered Clouds
7:35 PM 36.3 °F 30.1 °F 15.8 °F 43% 30.15 in 10.0 mi North 8.1 mph - N/A   Clear
7:55 PM 32.7 °F 26.4 °F 15.6 °F 49% 30.15 in 10.0 mi North 6.9 mph - N/A   Clear
8:15 PM 30.9 °F 26.2 °F 15.6 °F 53% 30.16 in 10.0 mi North 4.6 mph - N/A   Clear
8:35 PM 29.1 °F 23.0 °F 15.8 °F 58% 30.16 in 10.0 mi North 5.8 mph - N/A   Clear
8:55 PM 28.2 °F 24.4 °F 16.5 °F 62% 30.17 in 10.0 mi North 3.5 mph - N/A   Clear
9:15 PM 27.5 °F - 15.8 °F 61% 30.17 in 10.0 mi Calm Calm - N/A   Clear
9:35 PM 26.6 °F - 16.2 °F 65% 30.17 in 10.0 mi Calm Calm - N/A   Clear
9:55 PM 25.3 °F - 15.8 °F 67% 30.17 in 10.0 mi Calm Calm - N/A   Clear
10:15 PM 23.5 °F - 16.3 °F 74% 30.17 in 10.0 mi Calm Calm - N/A   Clear
10:35 PM 22.3 °F - 15.4 °F 75% 30.18 in 10.0 mi Calm Calm - N/A   Clear
10:55 PM 21.6 °F 16.8 °F 14.9 °F 76% 30.18 in 10.0 mi West 3.5 mph - N/A   Clear
11:15 PM 21.9 °F 14.5 °F 15.8 °F 77% 30.18 in 10.0 mi West 5.8 mph - N/A   Clear
11:35 PM 22.6 °F 15.3 °F 15.8 °F 75% 30.18 in 10.0 mi WSW 5.8 mph - N/A   Clear
11:55 PM 20.5 °F 11.7 °F 15.3 °F 80% 30.19 in 10.0 mi West 6.9 mph - N/A   Clear